User: anonymous   Login
Location: Unspecified
(0.0000°N, 0.0000°E)
Time: 03:51:25
(UTC+00:00)
Language:

FORMOSAT 3A - Orbit

View from above orbital plane
View from above orbital plane
View from above satellite
View from above satellite

Ground track
Ground track

The orbit data is extracted from the following two-line orbital elements,

1 29047U 06011A   18321.90199271 +.00000067 +00000-0 +42791-4 0  9993
2 29047 071.9790 208.7031 0051167 335.7850 024.0881 14.28657744658830
Epoch (UTC): 17 November 2018 21:38:52
Eccentricity: 0.0051167
inclination: 71.9790°
perigee height: 759 km
apogee height: 833 km
right ascension of ascending node: 208.7031°
argument of perigee: 335.7850°
revolutions per day: 14.28657744
mean anomaly at epoch: 24.0881°
orbit number at epoch: 65883

The dashed part of the orbit path shows where the satellite is in the earth's shadow,  

DLR